STARLINK-34607, 64742

Orbit data source: Space-Track

STARLINK-34607, 64742 is a payload satellite owned by SpaceX/Seattle (US) in LEO that was launched on Wed, 02 Jul 2025 UTC via an FALCON 9 launch vehicle from the Air Force Eastern Test Range (AFETR). Payload-class satellites include a variety of spacecraft equipped with specific instruments for various scientific and technological missions. These include communications satellites like Starlink; space stations such as the ISS; scientific satellites like the Hubble; Earth observation satellites from companies like Planet Labs, Umbra, and HawkEye 360; GPS; miniature CubeSats for education and research; and military/defense satellites.

Not visible in the next 10 days
Identifier
64742, 2025-144U
Orbit
LEO
Last TLE update
14 hours ago
Origin
Manufacturer
SpaceX/Seattle
Mission
Operational spacecraft
Bus & Motor
STARLINK V2MO, Unknown motor
Mass
575 kg wet, ~530 kg dry
Launch date (UTC)
2025-07-02 (1 week ago)
Launch vehicle
FALCON 9
Launch site
Air Force Eastern Test Range (AFETR)
Object type
Payload
Rocket body
Debris
Shape & HBR
Unknown
Radar Cross Section
RCS unknown

Expand to show TLE details & history

TLE from 14 hours ago
0 STARLINK-34607
1 64742U 25144U   25191.66668981 -.01238927  00000-0 -49424-2 0  9996
2 64742  53.1538 231.7029 0000859  75.4767  28.1191 15.88309509  2554
Epoch: 2025-07-10T16:00Z
TLE epoch observation values (Epoch: 2025-07-10T16:00:01.999Z)
Latitude
51.21416°
Longitude
174.86029°
Altitude
312.586 km
Speed
7.727 km/s
True Right ascension
22h 54m 47s
True Declination
51° 02' 06"
Sunlit
Object was in daylight at epoch
Visualization orbit readout
Latitude
-45.2056°
Longitude
-71.49286°
Altitude
327.359 km
Speed
7.711 km/s
Apparent Right ascension
06h 28m 40s
Apparent Declination
-42° 26' 27"
Sunlit
Object is in daylight
Visualization observer readout
Local Sidereal Time
18:27:58
Azimuth
182.878° SSW
Elevation
-87.472°
Doppler factor
1
Orbital elements
Apogee altitude
307.86 km
Perigee altitude
306.712 km
Semi-major axis
6,685.423 km
Eccentricity
0.00009
Inclination
53.1538°
RAAN
231.7029°
Arg. of periapsis
75.4767°
True anomaly
Unknown
Mean anomaly
28.1191°
Eccentric anomaly
Unknown
Mean motion
3.97054 °/min
Orbital period
90.67 mins
BSTAR
-0.0049424
Loading maneuver chart data...
Loading SW <> Apogee altitude chart data...
Loading historical data...
Loading historical data...
Loading historical data...
Loading historical data...
Loading historical data...
Loading historical data...
Loading historical data...

STARLINK-34607 Visibility

Observer location: undefined°, undefined°

STARLINK-34607 is likely not visible in the next few days
Span
Click to sort rows by Start time (UTC) header in descending order
Start Az.
Max El. time (UTC)
Max El. Az.
Max El.
End time (UTC)
End Az.
|